Tracking 18987 objects as of 25-Feb-2018
HD Live streaming from Space Station
objects crossing your sky now

NOAA 16 DEB

Track NOAA 16 DEB now!
10-day predictions


NORAD ID: 42347
Int'l Code: 2000-055QP
Perigee: 790.0 km
Apogee: 866.4 km
Inclination: 98.9 °
Period: 101.3 minutes
Semi major axis: 7199 km
RCS: Unknown
Launch date: September 21, 2000
Source: United States (US)
Launch site: AIR FORCE WESTERN TEST RANGE (AFWTR)

Note: This is SATELLITE DEBRIS
aabbcc
Your satellite tracking list
Your tracking list is empty




NASA's NSSDC Master Catalog

Two Line Element Set (TLE):
1 42347U 00055QP  18055.01671386 +.00000616 +00000-0 +29931-3 0  9991
2 42347 098.8803 142.3391 0053063 309.1383 050.5083 14.21260566108851
Source of the keplerian elements: AFSPC